{"data":{"norad_id":53565,"intl_designator":"2022-101AQ","name":"STARLINK-4575","alt_names":[],"object_type":"PAYLOAD","status":"ACTIVE","operator":null,"country":"US","launch_date":"2022-08-19","launch_site_code":"AFETR","launch_vehicle":null,"mission":null,"orbit_class":"UNKNOWN","rcs_meters":null,"size_class":null,"mass_kg":null,"dimensions":null,"purposes":["comms"],"wikipedia_slug":null,"has_3d_model":false,"image_url":null,"decayed_at":null,"tle_current":{"epoch":"2026-05-25T04:49:53.983200Z","epoch_age_seconds":53697,"freshness":"FRESH","line1":"1 53565U 22101AQ  26145.20131925 -.00002031  00000+0 -10951-3 0  9997","line2":"2 53565  53.2145  70.7982 0001532  84.9534 275.1633 15.08849504208655","mean_motion":15.08849504,"eccentricity":0.0001532,"inclination_deg":53.2145,"raan_deg":70.7982,"arg_perigee_deg":84.9534,"mean_anomaly_deg":275.1633,"bstar":-0.00010951,"rev_number":20865,"period_min":95.436953531981,"perigee_km":538.65452436556,"apogee_km":540.77415401588,"semimajor_km":6917.8513391907,"source":"CELESTRAK","updated_at":"2026-05-25T13:38:17.448170Z"}}}